This is the latest recevied weather packets stored in our database for station/object WZ8H. If no packets are shown the sender has not sent any weather packets the latest 10 day(s).
| Time | Temp. | Humidity | Pressure | Rain* | Wind** | Luminosity | Snow |
|---|---|---|---|---|---|---|---|
| 1777553730 | 7.22° C | 81% | 1013.3 hPa | 0 mm | - | 146 W/m² | - |
| 1777553434 | 7.22° C | 81% | 1013.3 hPa | 0 mm | - | 125 W/m² | - |
| 1777553106 | 7.22° C | 81% | 1013.2 hPa | 0 mm | - | 95 W/m² | - |
| 1777552788 | 7.22° C | 81% | 1013.3 hPa | 0 mm | - | 54 W/m² | - |
| 1777552487 | 7.22° C | 81% | 1013.3 hPa | 0 mm | - | 95 W/m² | - |
| 1777552192 | 7.22° C | 81% | 1013.3 hPa | 0 mm | - | 63 W/m² | - |
| 1777551862 | 7.22° C | 80% | 1013.2 hPa | 0 mm | - | 69 W/m² | - |
| 1777551540 | 7.22° C | 81% | 1013.2 hPa | 0 mm | - | 74 W/m² | - |
| 1777551233 | 7.22° C | 81% | 1013.2 hPa | 0 mm | - | 65 W/m² | - |
| 1777550905 | 7.22° C | 80% | 1013.1 hPa | 0 mm | - | 53 W/m² | - |
| 1777550598 | 7.22° C | 80% | 1013.2 hPa | 0 mm | - | 60 W/m² | - |
| 1777550271 | 7.22° C | 80% | 1013.1 hPa | 0 mm | - | 60 W/m² | - |
| 1777549968 | 7.22° C | 80% | 1013.1 hPa | 0 mm | - | 46 W/m² | - |
| 1777549665 | 7.22° C | 81% | 1012.9 hPa | 0 mm | - | 30 W/m² | - |
| 1777549371 | 7.22° C | 81% | 1012.8 hPa | 0 mm | - | 30 W/m² | - |
| 1777549037 | 7.22° C | 81% | 1012.8 hPa | 0 mm | - | 23 W/m² | - |
| 1777548734 | 7.22° C | 81% | 1012.8 hPa | 0 mm | - | 23 W/m² | - |
| 1777548426 | 6.67° C | 81% | 1012.9 hPa | 0 mm | - | 26 W/m² | - |
| 1777548124 | 7.22° C | 81% | 1013 hPa | 0 mm | - | 32 W/m² | - |
| 1777547797 | 7.22° C | 81% | 1012.9 hPa | 0 mm | - | 25 W/m² | - |
| 1777547494 | 6.67° C | 81% | 1012.7 hPa | 0 mm | - | 28 W/m² | - |
| 1777547167 | 6.67° C | 81% | 1012.6 hPa | 0 mm | - | 12 W/m² | - |
| 1777546846 | 6.67° C | 81% | 1012.6 hPa | 0 mm | - | 12 W/m² | - |
| 1777546518 | 7.22° C | 81% | 1012.5 hPa | 0 mm | - | 9 W/m² | - |
| 1777546188 | 7.22° C | 81% | 1012.5 hPa | 0 mm | - | 5 W/m² | - |
* Rain latest hour (hover to see other rain measurements)
** Current wind speed in m/s (hover to see current wind gust speed)